星链-5107 (STARLINK-5107 )

导读

STARLINK-5107是美国太空探索技术公司SpaceX星链卫星互联网项目的卫星,于2022年12月28日发射升空,属于星链星座组网卫星,为全球提供低延迟、高速率的宽带互联网服务,运行在近地轨道,依托星链星座大规模组网布局,扩展全球卫星互联网络的覆盖范围与服务容量。

Basic Information
目录编号:
54826
目录名称:
STARLINK-5107
国际标识:
2022-177G
轨道中心:
EARTH
卫星名称:
星链-5107
卫星全名:
星链-5107 (STARLINK-5107 )
卫星状态:
在轨 (已飞行1354 天)
发射日期:
2022-12-28 UTC
国别 :
美国 (US)
星等 :
--
This satellite is enrolled in the Space Conjunction Data Service (SCDS) and the current flight risk assessment level is: No High Risk
Orbit Information
数据来源 国际轨道数据 AOE轨道数据
星历时间 2026-09-12T10:43:01+0800
10小时前
查看轨道信息
2026-09-10T23:00:00+0800
1天前
查看轨道信息
半长轴 6861.205km 6861.199km
偏心率 0.0001074 0.000003
轨道倾角 43.002° 43.002°
近地点辐角 256.644° 168.959°
升交点赤经 163.297° 171.696°
平近点角 103.429° 277.466°
近地点 482.331km 483.041km
远地点 483.805km 483.083km
周期 94.267分钟 94.267分钟
每日圈数 15.275737 15.27576
Detailed Information
固有亮度:
5
最大亮度:
2.5
卫星平台:
Starlink v1.5
覆盖范围:
全球
运营商:
太空探索技术公司
运营商所在国:
美国
制造商(研发单位):
太空探索技术公司
制造商所在国:
美国
使用方式:
暂无
Satellite Introduction
星链(Starlink)计划是由太空探索技术公司(SpaceX)提出的一个巨型低轨卫星互联网星座项目,计划在2019年至2024年间在太空搭建由约1.2万颗卫星组成的“星链”网络,其中1584颗将部署在地球上空550千米处的近地轨道,并从2020年开始工作。该卫星仍在工作。
2D Orbit Map
3D Orbit Map
Orbit Altitude Analysis Chart
Orbit Inclination Analysis Chart
Orbit Comprehensive Analysis Chart
View Comprehensive Chart
Miss Distance Evolution Trend with All Objects
Collision Probability Evolution Trend with All Objects